Location: Chakepay
(13.3931°S, 72.1925°W)
Time: 08:29:25
(UTC+00:00)

FENGYUN 3A - Pass Details

Date: 15 November 2019
Orbit: 823 x 836 km, 98.4° (Epoch: 13 December)

Event Time Altitude Azimuth Distance (km) Brightness Sun altitude
Rises 09:44:52 0° 11° (NNE) 3,348 6.7 -6.9°
Reaches altitude 10° 09:47:12 10° 11° (N) 2,418 6.0 -6.4°
Maximum altitude 09:52:34 85° 283° (WNW) 834 3.7 -5.2°
Drops below altitude 10° 09:57:58 10° 194° (SSW) 2,433 6.2 -3.9°
Sets 10:00:20 0° 193° (SSW) 3,370 6.9 -3.4°
